[TLELIST] Archives

 

Current TLEs

February 12th 2008 PDT

HST 1 20580U 90037B 08040.49499030 +.00000344 +00000-0 +13789-4 0 00774 2 20580 028.4682 082.5534 0003934 101.4155 258.6878 15.00335080775637 ISS (ZARYA) 1 25544U 98067A 08042.34663315 .00024885 00000-0 14497-3 0 9002 2 25544 051.6408 310.3058 0005707 034.4151 069.9746 15.78275751528513 CXO 1 25867U 99040B 08043.29166667 .00000223 00000-0 10000-3 0 1676 2 25867 063.1425 083.7240 6615700 280.5136 358.3102 00.37808346 3155 ____________________________________________________________________ These 2-Line ...Continue Reading

Current TLEs

February 11th 2008 PDT

HST 1 20580U 90037B 08039.56369622 +.00000366 +00000-0 +15494-4 0 00794 2 20580 028.4680 088.6293 0003824 093.9601 266.1426 15.00334881775498 ISS (ZARYA) 1 25544U 98067A 08041.33267635 .00026469 00000-0 15424-3 0 8959 2 25544 051.6400 315.5459 0005853 030.0718 069.4279 15.78228663528358 CXO 1 25867U 99040B 08040.66666667 .00000286 00000-0 10000-3 0 1667 2 25867 063.1222 083.8111 6612587 280.5043 001.0386 00.37808355 3140 ____________________________________________________________________ These 2-Line ...Continue Reading

Current TLEs

February 10th 2008 PDT

HST 1 20580U 90037B 08040.22890612 .00000360 00000-0 15016-4 0 689 2 20580 028.4680 084.2917 0003832 101.0920 259.0099 15.00335104775594 ISS (ZARYA) 1 25544U 98067A 08040.38386772 .00027110 00000-0 15821-3 0 8884 2 25544 051.6400 320.4497 0005878 026.4023 078.7667 15.78179412528205 CXO 1 25867U 99040B 08040.66666667 .00000286 00000-0 10000-3 0 1667 2 25867 063.1222 083.8111 6612587 280.5043 001.0386 00.37808355 3140 ____________________________________________________________________ These 2-Line ...Continue Reading

Current TLEs

February 9th 2008 PDT

HST 1 20580U 90037B 08038.56588070 .00000361 00000-0 15100-4 0 679 2 20580 028.4679 095.1359 0003730 083.7992 276.3023 15.00334450775340 ISS (ZARYA) 1 25544U 98067A 08039.36979363 .00022987 00000-0 13519-3 0 8827 2 25544 051.6408 325.6861 0005666 022.9305 077.0329 15.78116520528044 CXO 1 25867U 99040B 08035.29166667 .00000179 00000-0 10000-3 0 1655 2 25867 063.0930 083.9487 6602417 280.5156 349.3865 00.37805674 3127 ____________________________________________________________________ These 2-Line ...Continue Reading

Current TLEs

February 8th 2008 PDT

HST 1 20580U 90037B 08036.57024798 +.00000331 +00000-0 +12837-4 0 00750 2 20580 028.4682 108.1480 0003504 063.0966 296.9982 15.00333513775043 ISS (ZARYA) 1 25544U 98067A 08038.35568406 .00018997 00000-0 11275-3 0 8741 2 25544 051.6400 330.9282 0005529 018.3720 076.3897 15.78059194527886 CXO 1 25867U 99040B 08035.29166667 .00000179 00000-0 10000-3 0 1655 2 25867 063.0930 083.9487 6602417 280.5156 349.3865 00.37805674 3127 ____________________________________________________________________ These 2-Line ...Continue Reading

Current TLEs

February 7th 2008 PDT

HST 1 20580U 90037B 08036.23764256 .00000323 00000-0 12151-4 0 652 2 20580 028.4680 110.3168 0003490 059.2112 300.8822 15.00333296774992 ISS (ZARYA) 1 25544U 98067A 08037.22405016 .00029228 00000-0 17140-3 0 8660 2 25544 051.6405 336.7724 0005333 012.7575 128.9266 15.78029821527704 CXO 1 25867U 99040B 08035.29166667 .00000179 00000-0 10000-3 0 1655 2 25867 063.0930 083.9487 6602417 280.5156 349.3865 00.37805674 3127 ____________________________________________________________________ These 2-Line ...Continue Reading

Current TLEs

February 6th 2008 PDT

HST 1 20580U 90037B 08036.23764256 .00000323 00000-0 12151-4 0 652 2 20580 028.4680 110.3168 0003490 059.2112 300.8822 15.00333296774992 ISS (ZARYA) 1 25544U 98067A 08036.07828380 .00027509 00000-0 16211-3 0 8595 2 25544 051.6403 342.6892 0005269 010.6176 097.8038 15.77957108527524 CXO 1 25867U 99040B 08035.29166667 .00000179 00000-0 10000-3 0 1655 2 25867 063.0930 083.9487 6602417 280.5156 349.3865 00.37805674 3127 ____________________________________________________________________ These 2-Line ...Continue Reading

Current TLEs

February 5th 2008 PDT

HST 1 20580U 90037B 08034.64113534 .00000332 00000-0 12902-4 0 645 2 20580 028.4671 120.7302 0003382 041.3543 318.7305 15.00332821774758 ISS (ZARYA) 1 25544U 98067A 08035.38853715 .00026372 00000-0 15588-3 0 8546 2 25544 051.6417 346.2520 0005323 008.7740 138.8263 15.77914274527414 CXO 1 25867U 99040B 08035.29166667 .00000179 00000-0 10000-3 0 1655 2 25867 063.0930 083.9487 6602417 280.5156 349.3865 00.37805674 3127 ____________________________________________________________________ These 2-Line ...Continue Reading

Current TLEs

February 4th 2008 PDT

HST 1 20580U 90037B 08033.57679670 .00000304 00000-0 10693-4 0 637 2 20580 028.4670 127.6723 0003319 028.4422 331.6347 15.00332244774593 ISS (ZARYA) 1 25544U 98067A 08034.04872506 .00026942 00000-0 15966-3 0 8427 2 25544 051.6413 353.1725 0005241 006.2808 085.5545 15.77843063527206 CXO 1 25867U 99040B 08035.29166667 .00000179 00000-0 10000-3 0 1655 2 25867 063.0930 083.9487 6602417 280.5156 349.3865 00.37805674 3127 ____________________________________________________________________ These 2-Line ...Continue Reading

Current TLEs

February 3rd 2008 PDT

HST 1 20580U 90037B 08032.51245721 .00000301 00000-0 10499-4 0 626 2 20580 028.4669 134.6131 0003257 016.3195 343.7493 15.00331906774439 ISS (ZARYA) 1 25544U 98067A 08033.24592593 .00026052 00000-0 15483-3 0 8362 2 25544 051.6422 357.3190 0005580 001.2781 207.4415 15.77797553527077 CXO 1 25867U 99040B 08032.66666667 .00000134 00000-0 10000-3 0 1648 2 25867 063.0827 084.0091 6596315 280.5454 352.0218 00.37805383 3114 ____________________________________________________________________ These 2-Line ...Continue Reading
  • This mailing list is a public mailing list - anyone may join or leave, at any time.
  • This mailing list is announce-only.

International Space Station (ISS) / Hubble Space Telescope (HST) / Chandra X-Ray Observatory Orbital Data via EMAIL

Privacy Policy:

Private list